Deer Park, WA
on Thursday, February 28, 2013

Thursday
Previous Day Next Day
Daily Summary
 ActualAverageRecord
Temperature
Mean Temperature °F 33°F  
Max Temperature 40°F 43°F 48°F (1999)
Min Temperature 29°F 23°F 3°F (2012)
Degree Days
Heating Degree Days 30 32  
Month to date heating degree days 970 969  
Since 1 July heating degree days 5078 5365  
Cooling Degree Days 0 0  
Month to date cooling degree days 0 0  
Year to date cooling degree days 0 0  
Moisture
Dew Point 33°F   
Average Humidity 91    
Maximum Humidity 100    
Minimum Humidity 82    
Precipitation
Precipitation 0.14 in 0.06 in 0.35 in (2006)
Month to date precipitation 0.93 1.60  
Year to date precipitation 2.43 4.23  
Wind
Wind Speed 2 mph   
Max Wind Speed 7 mph   
Max Gust Speed 8 mph   
Visibility 6 miles   
Events Rain   

Key: T is trace of precipitation, MM is missing value
Source: NWS Daily Summary
Time(PST)TemperatureDew PointHumidity Pressure Visibility Wind DirectionWind SpeedGust SpeedPrecipitationEvents Conditions
12:53 AM 30.0°F 26.1°F 85% 30.30 in 10.0 miles Calm Calm - N/A   Overcast
1:53 AM 30.0°F 27.0°F 88% 30.29 in 10.0 miles NNE 3.5 mph - N/A   Overcast
2:53 AM 30.9°F 26.1°F 82% 30.29 in 10.0 miles Calm Calm - N/A   Overcast
4:53 AM 32.0°F 28.0°F 85% 30.31 in 10.0 miles ENE 5.8 mph - N/A   Overcast
6:12 AM 30.2°F 26.6°F 86% 30.27 in 10.0 miles NE 3.5 mph - N/A   Mostly Cloudy
6:45 AM 33.8°F 28.4°F 81% 30.29 in 10.0 miles Calm Calm - N/A   Overcast
6:53 AM 33.1°F 30.0°F 89% 30.35 in 10.0 miles Calm Calm - N/A   Overcast
7:53 AM 33.1°F 30.9°F 92% 30.35 in 10.0 miles North - - N/A   Overcast
8:19 AM 33.8°F 30.2°F 87% 30.29 in 10.0 miles North - - N/A   Overcast
8:53 AM 35.1°F 30.9°F 85% 30.36 in 10.0 miles Calm Calm - N/A   Overcast
9:53 AM 35.1°F 32.0°F 89% 30.38 in 10.0 miles Calm Calm - N/A   Overcast
10:53 AM 37.0°F 33.1°F 86% 30.37 in 10.0 miles Calm Calm - N/A   Overcast
11:53 AM 37.0°F 34.0°F 89% 30.37 in 10.0 miles Calm Calm - N/A   Overcast
12:53 PM 39.0°F 35.1°F 86% 30.35 in 10.0 miles Calm Calm - N/A   Overcast
1:53 PM 39.0°F 35.1°F 86% 30.35 in 8.0 miles Calm Calm - 0.00 in Rain Light Rain
2:10 PM 37.4°F 35.6°F 93% 30.29 in 9.0 miles Calm Calm - 0.00 in Rain Light Rain
2:53 PM 37.9°F 36.0°F 93% 30.36 in 6.0 miles Calm Calm - 0.02 in Rain Light Rain
3:13 PM 37.4°F 35.6°F 93% 30.30 in 4.0 miles NNE 3.5 mph - 0.01 in Rain Light Rain
3:53 PM 37.0°F 36.0°F 96% 30.36 in 4.0 miles NNE 4.6 mph - 0.05 in Rain Light Rain
4:12 PM 37.4°F 35.6°F 93% 30.30 in 6.0 miles NNE 5.8 mph - 0.01 in Rain Light Rain
4:29 PM 35.6°F 35.6°F 100% 30.31 in 5.0 miles North - - 0.02 in Rain Light Rain
4:53 PM 36.0°F 35.1°F 97% 30.37 in 6.0 miles North - - 0.03 in   Overcast
5:37 PM 35.6°F 35.6°F 100% 30.31 in 3.0 miles Calm Calm - 0.01 in   Overcast
5:53 PM 35.1°F 35.1°F 100% 30.38 in 5.0 miles NNE 3.5 mph - 0.02 in   Overcast
6:30 PM 35.6°F 33.8°F 93% 30.31 in 4.0 miles ENE 4.6 mph - 0.01 in   Overcast
6:53 PM 35.1°F 35.1°F 100% 30.38 in 7.0 miles NE 3.5 mph - 0.01 in   Overcast
7:07 PM 33.8°F 33.8°F 100% 30.31 in 6.0 miles ENE 4.6 mph - N/A   Overcast
7:53 PM 34.0°F 34.0°F 100% 30.38 in 4.0 miles Calm Calm - N/A   Overcast
8:07 PM 33.8°F 33.8°F 100% 30.32 in 2.0 miles Calm Calm - N/A   Overcast
8:11 PM 33.8°F 33.8°F 100% 30.32 in 1.8 miles NE 3.5 mph - N/A   Overcast
8:23 PM 35.6°F 33.8°F 93% 30.33 in 1.8 miles North 3.5 mph - N/A   Overcast
8:42 PM 35.6°F 33.8°F 93% 30.33 in 2.0 miles ENE 3.5 mph - N/A   Overcast
8:53 PM 35.1°F 35.1°F 100% 30.38 in 2.5 miles ENE 3.5 mph - N/A   Overcast
9:11 PM 33.8°F 33.8°F 100% 30.32 in 1.8 miles Calm Calm - N/A   Overcast
9:53 PM 34.0°F 34.0°F 100% 30.39 in 1.0 miles Calm Calm - N/A   Overcast
10:14 PM 33.8°F 33.8°F 100% 30.32 in 0.8 miles Calm Calm - N/A   Overcast
10:21 PM 33.8°F 33.8°F 100% 30.32 in 1.2 miles North 3.5 mph - 0.01 in   Overcast
10:35 PM 33.8°F 33.8°F 100% 30.32 in 2.5 miles Calm Calm - 0.01 in   Overcast
10:53 PM 34.0°F 34.0°F 100% 30.39 in 1.0 miles Calm Calm - 0.01 in   Overcast
11:14 PM 33.8°F 33.8°F 100% 30.33 in 2.5 miles NNW 3.5 mph - N/A   Overcast
11:35 PM 33.8°F 33.8°F 100% 30.32 in 1.2 miles Calm Calm - 0.00 in   Overcast
11:53 PM 34.0°F 34.0°F 100% 30.39 in 1.2 miles North 3.5 mph - 0.00 in   Overcast
Moon Phase
Feb. 28 Mar. 04 Mar. 11 Mar. 19 Mar. 27
Sunrise:06:31 AM (PST) Moon Rise:09:26 PM (PST)2/28
Sunset:05:33 PM (PST) Moon Set:07:26 AM (PST)2/28

Copyright © 2014 The Weather Underground, Inc.